Location: Katowice
(50.2611°N, 19.0242°E)
Time: 15:44:08
(UTC+02:00)

ISS - Pass Details

Date: 30 March 2019
Orbit: 408 x 410 km, 51.6° (Epoch: 25 April)

Event Time Altitude Azimuth Distance (km) Brightness Sun altitude
Rises 19:14:34 0° 274° (W) 2,337 1.7 -10.5°
Reaches altitude 10° 19:16:40 10° 277° (W) 1,475 0.5 -10.8°
Maximum altitude 19:19:58 66° 0° (N) 450 -3.6 -11.3°
Enters shadow 19:22:25 17° 82° (E) 1,142 -2.1 -11.7°
